Regional Weather Roundup
Issued by NWS

Home | Current Version | Previous Version | Graphics & Text | Print | Product List | Glossary On
Versions: 1 2 3 4 5 6 7 8 9 10 11 12 13 14 15 16 17 18 19 20 21 22 23 24 25 26 27 28 29 30 31 32 33 34 35 36 37 38 39 40 41 42 43 44 45 46 47 48 49 50
000
ASUS45 KCYS 062010
RWRWY

WYOMING REGIONAL WEATHER ROUNDUP
NATIONAL WEATHER SERVICE CHEYENNE WY
200 PM MDT WED MAY 06 2015

NOTE:  "FAIR" INDICATES FEW OR NO CLOUDS BELOW 12,000 FEET
WITH NO SIGNIFICANT WEATHER AND/OR OBSTRUCTIONS TO VISIBILITY.

WYZ001-062100-
YELLOWSTONE NATIONAL PARK

CITY           SKY/WX    TMP DP  RH WIND       PRES   REMARKS
LK YELLOWSTONE   N/A     50  29  44 VRB3      29.85F
W YELLOWSTONE  NOT AVBL

$$
WYZ002>013-054>058-071-098>099-062100-
NORTHERN WYOMING

CITY           SKY/WX    TMP DP  RH WIND       PRES   REMARKS
JACKSON        PTSUNNY   57  30  35 CALM      29.77F
CODY           CLOUDY    46  34  61 N17       29.86F
GREYBULL       CLOUDY    53  35  50 NW23G38   29.77R
WORLAND        LGT RAIN  49  40  71 N22G30    29.78R
SHERIDAN       CLOUDY    46  39  76 NW21G28   29.87R
BUFFALO        CLOUDY    46  37  71 N33G52    29.80S
GILLETTE       LGT RAIN  47  45  93 NW26      29.76R
HULETT         LGT RAIN  50  48  93 NW13      29.73R
NEWCASTLE      FAIR      59  50  72 N8        29.68S

$$
WYZ014>020-022>026-101>103-062100-
CENTRAL WYOMING

CITY           SKY/WX    TMP DP  RH WIND       PRES   REMARKS
BIG PINEY      FAIR      62  22  21 NW9G17    29.77F
PINEDALE       FAIR      59  28  31 W10G18    29.77F
DUBOIS         MOCLDY    52  37  58 SE16G23   29.78S
LANDER         CLOUDY    53  47  79 S7        29.78F
RIVERTON       LGT RAIN  52  46  80 NE16      29.79S
CASPER         CLOUDY    55  42  61 N21G30    29.75S
DOUGLAS        LGT RAIN  54  46  74 NW15      29.72S

$$
WYZ021-027>030-104>119-062100-
SOUTHERN WYOMING

CITY           SKY/WX    TMP DP  RH WIND       PRES   REMARKS
EVANSTON       CLOUDY    57  30  35 VRB3      29.79F
KEMMERER       FAIR      59  27  29 NW8G18    29.79F
FORT BRIDGER   PTCLDY    59  30  33 NE5       29.82F
ROCK SPRINGS   FAIR      59  31  34 W16G24    29.78S
DIXON          LGT RAIN  49  45  85 NW8       29.83R
RAWLINS        CLOUDY    48  44  86 N7        29.78S
SARATOGA       TSTM      45  43  93 W16       29.79R
LARAMIE        FAIR      55  42  61 NE8       29.73F
CHEYENNE       LGT RAIN  56  45  66 N14       29.70F
TORRINGTON     CLOUDY    59  53  80 N7        29.63F
PINE BLUFFS    DRIZZLE   55  50  82 N14       29.67S

$$


USA.gov is the U.S. government's official web portal to all federal, state and local government web resources and services.